H1 CPF 2 NER 2023 8 22 9 234 01 glonass107 H2 0706501 9107 32393 2023 8 22 0 0 0 2023 8 25 23 45 0 900 1 1 0 0 0 1 H9 10 0 60178 0.00000 0 -10103815.513 -20978415.707 -10424233.394 10 0 60178 900.00000 0 -10508138.688 -22011747.093 -7474525.747 10 0 60178 1800.00000 0 -10863973.857 -22661789.799 -4379662.711 10 0 60178 2700.00000 0 -11115533.238 -22928684.509 -1199736.863 10 0 60178 3600.00000 0 -11209480.018 -22825548.542 2003491.612 10 0 60178 4500.00000 0 -11097398.948 -22377796.590 5167795.863 10 0 60178 5400.00000 0 -10738070.361 -21621962.295 8231693.519 10 0 60178 6300.00000 0 -10099450.560 -20604070.530 11135644.107 10 0 60178 7200.00000 0 -9160273.870 -19377629.227 13823208.947 10 0 60178 8100.00000 0 -7911207.520 -18001325.626 16242150.597 10 0 60178 9000.00000 0 -6355509.427 -16536524.170 18345450.203 10 0 60178 9900.00000 0 -4509159.838 -15044671.568 20092222.787 10 0 60178 10800.00000 0 -2400459.982 -13584718.223 21448512.719 10 0 60178 11700.00000 0 -69113.197 -12210664.372 22387954.032 10 0 60178 12600.00000 0 2435174.268 -10969333.842 22892282.940 10 0 60178 13500.00000 0 5054515.511 -9898468.573 22951692.812 10 0 60178 14400.00000 0 7725013.359 -9025223.444 22565024.909 10 0 60178 15300.00000 0 10379189.359 -8365124.047 21739791.239 10 0 60178 16200.00000 0 12948571.027 -7921530.576 20492029.072 10 0 60178 17100.00000 0 15366330.326 -7685629.675 18845989.818 10 0 60178 18000.00000 0 17569864.011 -7636953.966 16833668.069 10 0 60178 18900.00000 0 19503208.806 -7744406.686 14494179.734 10 0 60178 19800.00000 0 21119191.090 -7967747.629 11873001.092 10 0 60178 20700.00000 0 22381221.714 -8259477.048 9021083.431 10 0 60178 21600.00000 0 23264661.366 -8567037.305 5993860.496 10 0 60178 22500.00000 0 23757699.833 -8835238.564 2850168.130 10 0 60178 23400.00000 0 23861712.923 -9008805.251 -348902.474 10 0 60178 24300.00000 0 23591082.795 -9034934.871 -3541195.256 10 0 60178 25200.00000 0 22972490.070 -8865760.249 -6664699.838 10 0 60178 26100.00000 0 22043708.318 -8460610.381 -9658758.084 10 0 60178 27000.00000 0 20851952.459 -7787973.682 -12465242.850 10 0 60178 27900.00000 0 19451851.251 -6827080.127 -15029685.791 10 0 60178 28800.00000 0 17903129.643 -5569034.902 -17302332.264 10 0 60178 29700.00000 0 16268098.717 -4017455.198 -19239103.098 10 0 60178 30600.00000 0 14609058.600 -2188582.630 -20802444.982 10 0 60178 31500.00000 0 12985723.078 -110865.771 -21962053.589 10 0 60178 32400.00000 0 11452773.308 2175970.700 -22695456.112 10 0 60178 33300.00000 0 10057642.305 4622332.406 -22988442.630 10 0 60178 34200.00000 0 8838622.073 7170579.735 -22835338.534 10 0 60178 35100.00000 0 7823371.542 9757195.602 -22239113.171 10 0 60178 36000.00000 0 7027886.759 12315207.603 -21211322.764 10 0 60178 36900.00000 0 6455975.557 14776764.987 -19771888.636 10 0 60178 37800.00000 0 6099257.861 17075764.434 -17948714.688 10 0 60178 38700.00000 0 5937691.035 19150416.355 -15777150.996 10 0 60178 39600.00000 0 5940597.691 20945645.619 -13299313.269 10 0 60178 40500.00000 0 6068152.436 22415227.217 -10563270.661 10 0 60178 41400.00000 0 6273264.663 23523568.125 -7622117.065 10 0 60178 42300.00000 0 6503777.767 24247061.048 -4532943.441 10 0 60178 43200.00000 0 6704891.659 24574953.520 -1355730.879 10 0 60178 44100.00000 0 6821705.812 24509695.921 1847814.200 10 0 60178 45000.00000 0 6801774.821 24066753.827 5015459.850 10 0 60178 45900.00000 0 6597567.654 23273892.623 8085659.790 10 0 60178 46800.00000 0 6168725.799 22169964.483 10998752.002 10 0 60178 47700.00000 0 5484023.798 20803248.892 13698120.970 10 0 60178 48600.00000 0 4522948.281 19229416.596 16131300.556 10 0 60178 49500.00000 0 3276827.632 17509202.735 18250995.790 10 0 60178 50400.00000 0 1749463.411 15705887.010 20016003.552 10 0 60178 51300.00000 0 -42764.369 13882686.739 21392014.227 10 0 60178 52200.00000 0 -2071323.865 12100172.046 22352278.905 10 0 60178 53100.00000 0 -4296473.373 10413811.387 22878129.325 10 0 60178 54000.00000 0 -6668680.479 8871749.850 22959340.707 10 0 60178 54900.00000 0 -9130460.262 7512912.788 22594330.579 10 0 60178 55800.00000 0 -11618556.862 6365513.578 21790189.856 10 0 60178 56700.00000 0 -14066378.289 5446027.245 20562545.529 10 0 60178 57600.00000 0 -16406583.735 4758672.136 18935257.524 10 0 60178 58500.00000 0 -18573716.028 4295420.502 16939955.397 10 0 60178 59400.00000 0 -20506769.857 4036536.575 14615423.619 10 0 60178 60300.00000 0 -22151588.884 3951618.590 12006847.140 10 0 60178 61200.00000 0 -23462991.795 4001099.889 9164931.802 10 0 60178 62100.00000 0 -24406538.584 4138144.884 6144916.613 10 0 60178 63000.00000 0 -24959863.358 4310858.884 3005497.252 10 0 60178 63900.00000 0 -25113518.085 4464717.512 -192317.934 10 0 60178 64800.00000 0 -24871292.316 4545112.097 -3386396.821 10 0 60178 65700.00000 0 -24249995.957 4499902.536 -6514693.643 10 0 60178 66600.00000 0 -23278714.831 4281868.880 -9516456.329 10 0 60178 67500.00000 0 -21997570.927 3850957.251 -12333407.194 10 0 60178 68400.00000 0 -20456040.018 3176224.568 -14910873.772 10 0 60178 69300.00000 0 -18710897.786 2237399.375 -17198847.798 10 0 60178 70200.00000 0 -16823880.938 1025992.387 -19152951.964 10 0 60178 71100.00000 0 -14859161.433 -454090.631 -20735296.147 10 0 60178 72000.00000 0 -12880739.389 -2186460.125 -21915207.087 10 0 60178 72900.00000 0 -10949863.278 -4142682.704 -22669818.063 10 0 60178 73800.00000 0 -9122584.475 -6283232.384 -22984507.859 10 0 60178 74700.00000 0 -7447547.414 -8558914.457 -22853181.114 10 0 60178 75600.00000 0 -5964106.531 -10912703.785 -22278385.052 10 0 60178 76500.00000 0 -4700847.468 -13281922.156 -21271260.513 10 0 60178 77400.00000 0 -3674573.231 -15600665.207 -19851328.166 10 0 60178 78300.00000 0 -2889796.600 -17802378.977 -18046113.713 10 0 60178 79200.00000 0 -2338759.126 -19822479.756 -15890618.781 10 0 60178 80100.00000 0 -2001975.129 -21600908.779 -13426647.151 10 0 60178 81000.00000 0 -1849277.211 -23084515.725 -10701998.646 10 0 60178 81900.00000 0 -1841318.783 -24229171.806 -7769545.695 10 0 60178 82800.00000 0 -1931469.864 -25001524.126 -4686210.024 10 0 60178 83700.00000 0 -2068025.721 -25380317.795 -1511859.048 10 0 60178 84600.00000 0 -2196634.607 -25357230.204 1691856.665 10 0 60178 85500.00000 0 -2262841.398 -24937182.174 4862702.089 10 0 60179 0.00000 0 -2214638.900 -24138112.804 7939068.704 10 0 60179 900.00000 0 -2004918.071 -22990226.761 10861175.397 10 0 60179 1800.00000 0 -1593712.697 -21534746.685 13572231.364 10 0 60179 2700.00000 0 -950142.607 -19822221.600 16019543.514 10 0 60179 3600.00000 0 -53972.264 -17910463.305 18155542.398 10 0 60179 4500.00000 0 1103282.157 -15862196.966 19938708.220 10 0 60179 5400.00000 0 2517745.043 -13742524.353 21334378.650 10 0 60179 6300.00000 0 4173099.802 -11616305.835 22315422.863 10 0 60179 7200.00000 0 6041038.159 -9545570.472 22862768.903 10 0 60179 8100.00000 0 8082222.698 -7587062.083 22965774.338 10 0 60179 9000.00000 0 10247723.536 -5790023.359 22622433.200 10 0 60179 9900.00000 0 12480870.108 -4194309.961 21839415.281 10 0 60179 10800.00000 0 14719441.619 -2828912.626 20631937.013 10 0 60179 11700.00000 0 16898105.470 -1710948.155 19023466.310 10 0 60179 12600.00000 0 18951002.390 -845160.518 17045266.905 10 0 60179 13500.00000 0 20814370.690 -223951.894 14735790.772 10 0 60179 14400.00000 0 22429100.236 172058.819 12139930.195 10 0 60179 15300.00000 0 23743109.373 372974.645 9308143.897 10 0 60179 16200.00000 0 24713445.359 418102.204 6295474.160 10 0 60179 17100.00000 0 25308020.309 354041.554 3160474.192 10 0 60179 18000.00000 0 25506909.865 232465.996 -35933.112 10 0 60179 18900.00000 0 25303160.204 107686.671 -3231642.382 10 0 60179 19800.00000 0 24703069.732 34105.929 -6364575.411 10 0 60179 20700.00000 0 23725933.904 63668.040 -9373889.177 10 0 60179 21600.00000 0 22403264.298 243415.814 -12201158.356 10 0 60179 22500.00000 0 20777515.066 613257.092 -14791509.124 10 0 60179 23400.00000 0 18900370.583 1204035.980 -17094682.141 10 0 60179 24300.00000 0 16830666.250 2035990.736 -19066004.290 10 0 60179 25200.00000 0 14632029.544 3117663.773 -20667250.724 10 0 60179 26100.00000 0 12370339.792 4445310.202 -21867381.099 10 0 60179 27000.00000 0 10111112.320 6002830.405 -22643136.373 10 0 60179 27900.00000 0 7916915.452 7762230.272 -22979485.358 10 0 60179 28800.00000 0 5844927.138 9684590.770 -22869912.943 10 0 60179 29700.00000 0 3944731.983 11721507.366 -22316544.874 10 0 60179 30600.00000 0 2256449.275 13816940.384 -21330106.845 10 0 60179 31500.00000 0 809268.853 15909400.196 -19929718.674 10 0 60179 32400.00000 0 -379545.316 17934377.220 -18142527.184 10 0 60179 33300.00000 0 -1305143.328 19826916.339 -16003184.416 10 0 60179 34200.00000 0 -1975049.883 21524229.011 -13553180.607 10 0 60179 35100.00000 0 -2408599.694 22968234.540 -10840044.182 10 0 60179 36000.00000 0 -2635872.228 24107924.517 -7916423.630 10 0 60179 36900.00000 0 -2696171.229 24901451.473 -4839068.594 10 0 60179 37800.00000 0 -2636113.690 25317854.054 -1667729.687 10 0 60179 38700.00000 0 -2507409.489 25338346.004 1536001.722 10 0 60179 39600.00000 0 -2364426.113 24957114.376 4709890.989 10 0 60179 40500.00000 0 -2261642.061 24181592.992 7792271.374 10 0 60179 41400.00000 0 -2251097.413 23032199.173 10723244.965 10 0 60179 42300.00000 0 -2379950.175 21541544.373 13445849.491 10 0 60179 43200.00000 0 -2688242.600 19753151.553 15907167.956 10 0 60179 44100.00000 0 -3206972.833 17719732.764 18059359.214 10 0 60179 45000.00000 0 -3956554.242 15501098.965 19860589.285 10 0 60179 45900.00000 0 -4945728.440 13161789.347 21275845.267 10 0 60179 46800.00000 0 -6170978.838 10768519.061 22277616.205 10 0 60179 47700.00000 0 -7616470.467 8387551.720 22846427.810 10 0 60179 48600.00000 0 -9254519.684 6082105.961 22971220.896 10 0 60179 49500.00000 0 -11046575.131 3909903.735 22649566.385 10 0 60179 50400.00000 0 -12944669.842 1920961.973 21887712.770 10 0 60179 51300.00000 0 -14893284.593 155718.960 20700465.157 10 0 60179 52200.00000 0 -16831545.306 -1356427.308 19110898.077 10 0 60179 53100.00000 0 -18695663.132 -2598108.736 17149907.480 10 0 60179 54000.00000 0 -20421515.524 -3564464.462 14855610.344 10 0 60179 54900.00000 0 -21947260.482 -4263087.143 12272603.319 10 0 60179 55800.00000 0 -23215874.476 -4713441.702 9451094.681 10 0 60179 56700.00000 0 -24177507.615 -4945782.274 6445926.408 10 0 60179 57600.00000 0 -24791557.112 -4999614.247 3315505.514 10 0 60179 58500.00000 0 -25028371.783 -4921767.515 120665.705 10 0 60179 59400.00000 0 -24870515.901 -4764163.458 -3076518.080 10 0 60179 60300.00000 0 -24313539.168 -4581371.138 -6213938.744 10 0 60179 61200.00000 0 -23366220.490 -4428056.976 -9230665.663 10 0 60179 62100.00000 0 -22050275.394 -4356436.592 -12068128.989 10 0 60179 63000.00000 0 -20399539.482 -4413837.204 -14671256.347 10 0 60179 63900.00000 0 -18458662.319 -4640474.095 -16989539.768 10 0 60179 64800.00000 0 -16281366.528 -5067535.439 -18978012.320 10 0 60179 65700.00000 0 -13928344.846 -5715656.579 -20598115.923 10 0 60179 66600.00000 0 -11464882.797 -6593848.348 -21818444.046 10 0 60179 67500.00000 0 -8958305.714 -7698924.921 -22615345.623 10 0 60179 68400.00000 0 -6475355.799 -9015455.722 -22973379.176 10 0 60179 69300.00000 0 -4079607.579 -10516244.090 -22885608.962 10 0 60179 70200.00000 0 -1829028.239 -12163313.473 -22353737.852 10 0 60179 71100.00000 0 226216.889 -13909360.862 -21388074.585 10 0 60179 72000.00000 0 2045623.527 -15699617.698 -20007335.967 10 0 60179 72900.00000 0 3599796.209 -17474041.495 -18238287.542 10 0 60179 73800.00000 0 4871425.413 -19169747.540 -16115229.171 10 0 60179 74700.00000 0 5855754.342 -20723579.727 -13679334.849 10 0 60179 75600.00000 0 6560516.837 -22074713.557 -10977858.852 10 0 60179 76500.00000 0 7005349.911 -23167182.585 -8063222.977 10 0 60179 77400.00000 0 7220706.326 -23952222.436 -4992002.090 10 0 60179 78300.00000 0 7246313.708 -24390333.836 -1823827.386 10 0 60179 79200.00000 0 7129245.776 -24452977.597 1379771.449 10 0 60179 80100.00000 0 6921687.763 -24123829.734 4556562.481 10 0 60179 81000.00000 0 6678491.101 -23399543.278 7644822.642 10 0 60179 81900.00000 0 6454621.430 -22289984.069 10584539.750 10 0 60179 82800.00000 0 6302608.602 -20817929.896 13318581.559 10 0 60179 83700.00000 0 6270107.238 -19018245.010 15793808.721 10 0 60179 84600.00000 0 6397671.728 -16936564.053 17962109.723 10 0 60179 85500.00000 0 6716840.433 -14627540.076 19781337.476 10 0 60180 0.00000 0 7248610.670 -12152729.731 21216129.231 10 0 60180 900.00000 0 8002369.918 -9578202.275 22238594.720 10 0 60180 1800.00000 0 8975328.303 -6971975.085 22828857.480 10 0 60180 2700.00000 0 10152478.007 -4401377.787 22975441.641 10 0 60180 3600.00000 0 11507081.519 -1930457.534 22675494.855 10 0 60180 4500.00000 0 13001669.267 382468.383 21934843.963 10 0 60180 5400.00000 0 14589505.522 2487011.196 20767882.211 10 0 60180 6300.00000 0 16216461.791 4342569.809 19197290.048 10 0 60180 7200.00000 0 17823219.670 5919773.878 17253594.782 10 0 60180 8100.00000 0 19347711.200 7201451.625 14974577.357 10 0 60180 9000.00000 0 20727694.557 8183083.136 12404537.556 10 0 60180 9900.00000 0 21903357.009 8872721.370 9593431.752 10 0 60180 10800.00000 0 22819835.716 9290385.542 6595899.921 10 0 60180 11700.00000 0 23429550.223 9466953.737 3470200.933 10 0 60180 12600.00000 0 23694248.252 9442602.706 277077.118 10 0 60180 13500.00000 0 23586678.466 9264861.948 -2921429.400 10 0 60180 14400.00000 0 23091819.517 8986365.417 -6063185.149 10 0 60180 15300.00000 0 22207613.457 8662396.907 -9087174.478 10 0 60180 16200.00000 0 20945172.507 8348333.758 -11934685.559 10 0 60180 17100.00000 0 19328450.338 8097097.611 -14550449.932 10 0 60180 18000.00000 0 17393391.563 7956720.451 -16883713.327 10 0 60180 18900.00000 0 15186594.906 7968129.005 -18889217.180 10 0 60180 19800.00000 0 12763545.738 8163241.182 -20528072.195 10 0 60180 20700.00000 0 10186491.455 8563454.869 -21768507.529 10 0 60180 21600.00000 0 7522047.773 9178592.829 -22586481.802 10 0 60180 22500.00000 0 4838634.909 10006348.234 -22966144.771 10 0 60180 23400.00000 0 2203849.439 11032254.446 -22900141.342 10 0 60180 24300.00000 0 -318119.964 12230180.781 -22389752.494 10 0 60180 25200.00000 0 -2668926.706 13563334.145 -21444870.612 10 0 60180 26100.00000 0 -4798250.377 14985725.331 -20083809.661 10 0 60180 27000.00000 0 -6665641.208 16444039.446 -18332953.604 10 0 60180 27900.00000 0 -8241949.310 17879832.931 -16226249.341 10 0 60180 28800.00000 0 -9510280.180 19231965.921 -13804553.365 10 0 60180 29700.00000 0 -10466437.626 20439168.508 -11114844.113 10 0 60180 30600.00000 0 -11118836.485 21442633.632 -8209314.604 10 0 60180 31500.00000 0 -11487889.582 22188527.773 -5144362.512 10 0 60180 32400.00000 0 -11604895.478 22630313.780 -1979496.927 10 0 60180 33300.00000 0 -11510474.468 22730787.695 1223817.043 10 0 60180 34200.00000 0 -11252619.461 22463743.239 4403353.229 10 0 60180 35100.00000 0 -10884444.638 21815193.106 7497335.379 10 0 60180 36000.00000 0 -10461727.688 20784094.798 10445640.216 10 0 60180 36900.00000 0 -10040350.122 19382549.562 13190968.679 10 0 60180 37800.00000 0 -9673744.541 17635465.157 15679962.157 10 0 60180 38700.00000 0 -9410457.342 15579695.777 17864241.734 10 0 60180 39600.00000 0 -9291930.437 13262694.394 19701349.995 10 0 60180 40500.00000 0 -9350596.174 10740733.224 21155577.123 10 0 60180 41400.00000 0 -9608366.358 8076766.026 22198655.300 10 0 60180 42300.00000 0 -10075579.580 5338020.848 22810308.121 10 0 60180 43200.00000 0 -10750451.674 2593422.972 22978644.569 10 0 60180 44100.00000 0 -11619052.992 -89045.269 22700390.099 10 0 60180 45000.00000 0 -12655813.949 -2644938.523 21980950.462 10 0 60180 45900.00000 0 -13824538.129 -5015789.080 20834307.030 10 0 60180 46800.00000 0 -15079880.869 -7151293.350 19282745.571 10 0 60180 47700.00000 0 -16369231.620 -9011153.948 17356423.544 10 0 60180 48600.00000 0 -17634921.279 -10566501.513 15092784.081 10 0 60180 49500.00000 0 -18816661.906 -11800838.010 12535827.781 10 0 60180 50400.00000 0 -19854116.215 -12710463.140 9735256.344 10 0 60180 51300.00000 0 -20689488.605 -13304367.296 6745504.594 10 0 60180 52200.00000 0 -21270028.400 -13603596.819 3624679.828 10 0 60180 53100.00000 0 -21550339.473 -13640119.587 433429.383 10 0 60180 54000.00000 0 -21494398.558 -13455240.016 -2766241.159 10 0 60180 54900.00000 0 -21077196.789 -13097631.566 -5912175.705 10 0 60180 55800.00000 0 -20285934.883 -12621070.904 -8943277.293 10 0 60180 56700.00000 0 -19120721.294 -12081970.391 -11800695.732 10 0 60180 57600.00000 0 -17594743.620 -11536813.843 -14428969.892 10 0 60180 58500.00000 0 -15733905.708 -11039604.397 -16777102.344 10 0 60180 59400.00000 0 -13575945.336 -10639432.492 -18799545.643 10 0 60180 60300.00000 0 -11169068.950 -10378266.614 -20457081.541 10 0 60180 61200.00000 0 -8570160.009 -10289059.888 -21717576.568 10 0 60180 62100.00000 0 -5842635.027 -10394252.038 -22556600.067 10 0 60180 63000.00000 0 -3054035.763 -10704729.612 -22957893.399 10 0 60180 63900.00000 0 -273456.815 -11219288.084 -22913681.838 10 0 60180 64800.00000 0 2431085.599 -11924618.501 -22424823.594 10 0 60180 65700.00000 0 4995235.549 -12795819.474 -21500793.298 10 0 60180 66600.00000 0 7360723.950 -13797413.460 -20159500.245 10 0 60180 67500.00000 0 9477540.150 -14884825.252 -18426944.625 10 0 60180 68400.00000 0 11305759.409 -16006261.285 -16336717.886 10 0 60180 69300.00000 0 12816951.202 -17104911.493 -13929356.299 10 0 60180 70200.00000 0 13995110.604 -18121381.773 -11251559.534 10 0 60180 71100.00000 0 14837074.692 -18996255.202 -8355288.768 10 0 60180 72000.00000 0 15352407.299 -19672674.382 -5296761.317 10 0 60180 72900.00000 0 15562757.677 -20098836.117 -2135360.984 10 0 60180 73800.00000 0 15500720.655 -20230292.948 1067514.838 10 0 60180 74700.00000 0 15208246.939 -20031963.945 4249648.742 10 0 60180 75600.00000 0 14734671.165 -19479769.202 7349214.077 10 0 60180 76500.00000 0 14134441.538 -18561818.175 10305978.975 10 0 60180 77400.00000 0 13464647.525 -17279100.808 13062479.722 10 0 60180 78300.00000 0 12782450.573 -15645651.238 15565140.247 10 0 60180 79200.00000 0 12142526.897 -13688176.139 17765315.645 10 0 60180 80100.00000 0 11594630.749 -11445162.268 19620239.236 10 0 60180 81000.00000 0 11181381.393 -8965499.606 21093854.712 10 0 60180 81900.00000 0 10936367.392 -6306676.765 22157517.329 10 0 60180 82800.00000 0 10882648.376 -3532623.183 22790550.654 10 0 60180 83700.00000 0 11031717.591 -711287.294 22980648.311 10 0 60180 84600.00000 0 11382969.060 2087949.239 22724113.126 10 0 60180 85500.00000 0 11923691.987 4796914.296 22025929.109 10 0 60181 0.00000 0 12629592.735 7351235.641 20899665.070 10 0 60181 900.00000 0 13465823.019 9692773.152 19367210.932 10 0 60181 1800.00000 0 14388470.223 11771789.062 17458353.288 10 0 60181 2700.00000 0 15346448.516 13548771.155 15210196.220 10 0 60181 3600.00000 0 16283710.263 14995830.324 12666439.760 10 0 60181 4500.00000 0 17141684.849 16097616.459 9876529.374 10 0 60181 5400.00000 0 17861841.875 16851715.164 6894693.001 10 0 60181 6300.00000 0 18388270.357 17268509.843 3778884.440 10 0 60181 7200.00000 0 18670164.683 17370516.142 589653.939 10 0 60181 8100.00000 0 18664111.980 17191218.007 -2611031.700 10 0 60181 9000.00000 0 18336083.863 16773455.581 -5760996.085 10 0 60181 9900.00000 0 17663048.014 16167434.061 -8799063.288 10 0 60181 10800.00000 0 16634131.159 15428438.492 -11666247.062 10 0 60181 11700.00000 0 15251283.947 14614351.733 -14306895.827 10 0 60181 12600.00000 0 13529419.262 13783080.862 -16669771.095 10 0 60181 13500.00000 0 11496017.631 12990000.886 -18709038.518 10 0 60181 14400.00000 0 9190215.633 12285523.513 -20385152.746 10 0 60181 15300.00000 0 6661414.806 11712893.246 -21665619.410 10 0 60181 16200.00000 0 3967468.306 11306303.183 -22525620.185 10 0 60181 17100.00000 0 1172519.972 11089409.338 -22948489.486 10 0 60181 18000.00000 0 -1655415.268 11074305.484 -22926034.199 10 0 60181 18900.00000 0 -4447030.242 11261001.246 -22458690.731 10 0 60181 19800.00000 0 -7134357.692 11637425.133 -21555516.574 10 0 60181 20700.00000 0 -9653347.637 12179952.392 -20234016.548 10 0 60181 21600.00000 0 -11946284.074 12854435.659 -18519806.812 10 0 60181 22500.00000 0 -13963941.695 13617695.441 -16446122.658 10 0 60181 23400.00000 0 -15667393.842 14419408.174 -14053178.996 10 0 60181 24300.00000 0 -17029397.262 15204312.828 -11387395.224 10 0 60181 25200.00000 0 -18035296.623 15914643.518 -8500498.863 10 0 60181 26100.00000 0 -18683411.592 16492685.746 -5448524.804 10 0 60181 27000.00000 0 -18984890.868 16883348.486 -2290729.292 10 0 60181 27900.00000 0 -18963039.821 17036643.265 911560.429 10 0 60181 28800.00000 0 -18652150.531 16909965.088 4096138.290 10 0 60181 29700.00000 0 -18095883.994 16470078.142 7201129.939 10 0 60181 30600.00000 0 -17345273.223 15694721.539 10166197.722 10 0 60181 31500.00000 0 -16456431.963 14573766.271 12933716.152 10 0 60181 32400.00000 0 -15488066.192 13109873.471 15449894.605 10 0 60181 33300.00000 0 -14498893.825 11318625.024 17665825.080 10 0 60181 34200.00000 0 -13545081.823 9228119.843 19538434.425 10 0 60181 35100.00000 0 -12677809.007 6878051.564 21031322.497 10 0 60181 36000.00000 0 -11941057.417 4318305.088 22115470.049 10 0 60181 36900.00000 0 -11369725.273 1607129.640 22769802.770 10 0 60181 37800.00000 0 -10988140.891 -1191036.460 22981600.739 10 0 60181 38700.00000 0 -10809039.973 -4007999.544 22746745.556 10 0 60181 39600.00000 0 -10833049.127 -6774402.354 22069800.471 10 0 60181 40500.00000 0 -11048697.143 -9422366.726 20963921.985 10 0 60181 41400.00000 0 -11432953.414 -11888077.973 19450604.559 10 0 60181 42300.00000 0 -11952270.615 -14114204.075 17559263.219 10 0 60181 43200.00000 0 -12564087.595 -16052049.602 15326661.921 10 0 60181 44100.00000 0 -13218728.922 -17663355.288 12796198.564 10 0 60181 45000.00000 0 -13861620.751 -18921668.864 10017060.356 10 0 60181 45900.00000 0 -14435729.167 -19813230.689 7043265.906 10 0 60181 46800.00000 0 -14884117.696 -20337338.003 3932612.737 10 0 60181 47700.00000 0 -15152515.450 -20506173.545 745550.932 10 0 60181 48600.00000 0 -15191786.878 -20344106.807 -2455994.788 10 0 60181 49500.00000 0 -14960198.219 -19886498.443 -5609831.223 10 0 60181 50400.00000 0 -14425384.309 -19178059.231 -8654707.102 10 0 60181 51300.00000 0 -13565932.154 -18270833.731 -11531503.793 10 0 60181 52200.00000 0 -12372513.886 -17221894.424 -14184382.929 10 0 60181 53100.00000 0 -10848520.787 -16090844.117 -16561868.492 10 0 60181 54000.00000 0 -9010171.100 -14937232.165 -18617842.520 10 0 60181 54900.00000 0 -6886086.379 -13817993.334 -20312435.477 10 0 60181 55800.00000 0 -4516353.363 -12785016.864 -21612794.536 10 0 60181 56700.00000 0 -1951109.691 -11882947.470 -22493715.569 10 0 60181 57600.00000 0 751288.574 -11147310.030 -22938127.296 10 0 60181 58500.00000 0 3526442.346 -10603036.028 -22937418.833 10 0 60181 59400.00000 0 6306338.582 -10263452.879 -22491604.798 10 0 60181 60300.00000 0 9021933.294 -10129777.937 -21609325.003 10 0 60181 61200.00000 0 11605782.401 -10191137.984 -20307678.749 10 0 60181 62100.00000 0 13994612.317 -10425113.079 -18611896.674 10 0 60181 63000.00000 0 16131724.506 -10798781.843 -16554855.997 10 0 60181 63900.00000 0 17969134.856 -11270224.275 -14176447.956 10 0 60181 64800.00000 0 19469359.566 -11790418.978 -11522809.003 10 0 60181 65700.00000 0 20606773.671 -12305455.042 -8645429.972 10 0 60181 66600.00000 0 21368485.921 -12758965.370 -5600160.029 10 0 60181 67500.00000 0 21754693.824 -13094678.685 -2446124.355 10 0 60181 68400.00000 0 21778504.328 -13258982.202 755423.551 10 0 60181 69300.00000 0 21465228.012 -13203386.186 3942292.514 10 0 60181 70200.00000 0 20851176.840 -12886785.562 7052563.876 10 0 60181 71100.00000 0 19982016.445 -12277422.125 10025797.312 10 0 60181 72000.00000 0 18910742.750 -11354463.413 12804208.302 10 0 60181 72900.00000 0 17695368.559 -10109130.454 15333793.990 10 0 60181 73800.00000 0 16396417.927 -8545325.569 17565385.147 10 0 60181 74700.00000 0 15074334.168 -6679732.511 19455603.585 10 0 60181 75600.00000 0 13786910.762 -4541383.420 20967706.337 10 0 60181 76500.00000 0 12586853.356 -2170709.442 22072300.287 10 0 60181 77400.00000 0 11519575.287 381886.471 22747913.528 10 0 60181 78300.00000 0 10621319.081 3057876.095 22981412.557 10 0 60181 79200.00000 0 9917682.519 5792795.845 22768257.430 10 0 60181 80100.00000 0 9422610.773 8518689.705 22112590.044 10 0 60181 81000.00000 0 9137896.489 11166704.301 21027153.881 10 0 60181 81900.00000 0 9053208.288 13669728.823 19533046.693 10 0 60181 82800.00000 0 9146645.988 15964970.493 17659310.770 10 0 60181 83700.00000 0 9385798.619 17996358.875 15442368.518 10 0 60181 84600.00000 0 9729260.181 19716679.363 12925314.086 10 0 60181 85500.00000 0 10128538.653 21089347.260 10157074.625 99